User: anonymous   Login
Location: Unspecified
(0.0000°N, 0.0000°E)
Time: 20:46:39
(UTC+02:00)
Language:

AO-7 - Orbit

View from above orbital plane
View from above orbital plane
View from above satellite
View from above satellite

Ground track
Ground track

The orbit data is extracted from the following two-line orbital elements,

1  7530U 74089B   17083.88405462 -.00000040 +00000-0 +24422-4 0  9992
2  7530 101.6208 054.2630 0012318 124.5485 290.4951 12.53626103938064
Epoch (UTC): 24 March 2017 21:13:02
Eccentricity: 0.0012318
inclination: 101.6208°
perigee height: 1440 km
apogee height: 1459 km
right ascension of ascending node: 54.2630°
argument of perigee: 124.5485°
revolutions per day: 12.53626103
mean anomaly at epoch: 290.4951°
orbit number at epoch: 93806

The dashed part of the orbit path shows where the satellite is in the earth's shadow,  

DLR